Location: Passau
(48.5830°N, 13.4830°E)
Time: 18:05:15
(UTC+02:00)

Courier 1B Rocket - Pass Details

Date: 31 July 2021
Orbit: 920 x 1202 km, 28.3° (Epoch: 16 September)

Event Time Altitude Azimuth Distance (km) Brightness Sun altitude
Exits shadow 04:23:03 - 195° (SSW) 2,755 6.8 -10.9°
Reaches altitude 10° 04:24:01 10° 187° (S) 2,657 6.8 -10.8°
Maximum altitude 04:25:15 11° 176° (S) 2,604 6.9 -10.6°
Drops below altitude 10° 04:26:28 10° 164° (SSE) 2,635 7.0 -10.5°
Sets 04:31:43 0° 127° (SE) 3,550 8.1 -9.8°
